Regional Weather Roundup
Issued by NWS

Home | Current Version | Previous Version | Graphics & Text | Print | Product List | Glossary On
Versions: 1 2 3 4 5 6 7 8 9 10 11 12 13 14 15 16 17 18 19 20 21 22 23 24 25 26 27 28 29 30 31 32 33 34 35 36 37 38 39 40 41 42 43 44 45 46 47 48 49 50
000
ASUS43 KLMK 260302
RWRKY
KENTUCKY REGIONAL WEATHER ROUNDUP
NATIONAL WEATHER SERVICE LOUISVILLE KY
1100 PM EDT TUE JUL 25 2017

NOTE "FAIR" INDICATES FEW OR NO CLOUDS BELOW 12,000 FEET
WITH NO SIGNIFICANT WEATHER AND/OR OBSTRUCTIONS TO VISIBILITY.

KYZ001>023-026-027-061>063-070>075-260400-
WESTERN AND SOUTH CENTRAL KENTUCKY

CITY           SKY/WX    TMP DP  RH WIND       PRES   REMARKS
PADUCAH        PTCLDY    76  74  93 CALM      30.07R
HENDERSON      CLEAR     79  71  76 E5        30.10R
OWENSBORO      PTCLDY    81  71  71 E7        30.11R
HOPKINSVILLE   CLEAR     80  72  78 E8        30.09R
BOWLING GREEN  MOCLDY    80  71  74 E5        30.12R
GLASGOW        NOT AVBL
$$

KYZ024-025-028>034-038-045-046-053-260400-
NORTH CENTRAL KENTUCKY

CITY           SKY/WX    TMP DP  RH WIND       PRES   REMARKS
LOUISVILLE/SDF PTCLDY    79  62  56 E10       30.12R
LOUISVILLE/LOU CLEAR     77  64  64 E9        30.13S
FORT KNOX      CLEAR     75  66  73 E5        30.13R
$$

KYZ035>037-039>044-047>052-055>060-089>105-260400-
NORTHEAST KENTUCKY

CITY           SKY/WX    TMP DP  RH WIND       PRES   REMARKS
LEXINGTON      CLEAR     71  59  65 NE8       30.16S
COVINGTON      CLEAR     70  63  78 E8        30.17R
FRANKFORT      CLEAR     74  59  59 NE8       30.15S
$$

KYZ054-064>069-076>088-106>120-260400-
SOUTHEAST KENTUCKY

CITY           SKY/WX    TMP DP  RH WIND       PRES   REMARKS
JACKSON        CLEAR     70  59  68 CALM      30.19R
LONDON         CLEAR     73  64  73 NE3       30.17R
SOMERSET       CLEAR     72  63  73 CALM      30.16S
MIDDLESBORO    CLEAR     72  66  83 CALM      30.17R
MONTICELLO     CLEAR     68  67  96 N10       30.17R
$$





USA.gov is the U.S. government's official web portal to all federal, state and local government web resources and services.